CZ-6A DEB, 61299

Orbit data source: Space-Track

CZ-6A DEB, 61299 is space debris in LEO originally from a launch on Tue, 06 Aug 2024 UTC launched from the Taiyaun Space Center, China (TSC). Debris objects in space refer to the collection of defunct objects orbiting the Earth. Examples of debris include non-operational satellites, rocket bodies, and fragments generated from explosions, collisions, or faulty payload assembly.

Loading next visibility...
Identifier
61299, 2024-140TL
Orbit
LEO
Country
Flag of CNCN / PRC
Related business
Manufacturer
SAST
Mission
Spacecraft
Bus & Motor
Unknown
Mass
Unknown
Launch date (UTC)
2024-08-06 (1 year ago)
Launch vehicle
Unknown
Launch site
Taiyaun Space Center, China (TSC)
Object type
Payload
Rocket body
Debris
Shape & HBR
Unknown shape, 0.1 m
Radar Cross Section
Small (<0.1 m²)

Expand to show TLE details & history
Last TLE update: 15 hours ago

TLE from 15 hours ago
0 CZ-6A DEB
1 61299U 24140TL  25350.29987704  .00002281  00000-0  91598-3 0  9997
2 61299  88.9893 294.1786 0028699  66.9260 293.4955 14.27681353 67712
Epoch: 2025-12-16T07:11Z
TLE epoch observation values (Epoch: 2025-12-16T07:11:49.376Z)
Latitude
-0.00005°
Longitude
101.03679°
Altitude
794.391 km
Speed
7.461 km/s
True Right ascension
19h 36m 42s
True Declination
0° 00' 00"
Sunlit
Object was in daylight at epoch
Visualization orbit readout
Latitude
Unknown
Longitude
Unknown
Altitude
Unknown
Speed
Unknown
Apparent Right ascension
Unknown
Apparent Declination
Unknown
Sunlit
N/A
Visualization observer readout
Local Sidereal Time
20:58:17
Azimuth
Unknown
Elevation
Unknown
Doppler factor
Unknown
Orbital elements
Apogee altitude
817.022 km
Perigee altitude
775.842 km
Semi-major axis
7,174.569 km
Eccentricity
0.00287
Inclination
88.9893°
RAAN
294.1786°
Arg. of periapsis
66.926°
True anomaly
293.19347°
Mean anomaly
293.4955°
Eccentric anomaly
293.34453°
Mean motion
3.57149 °/min
Orbital period
100.8 mins
BSTAR
0.00091598
Loading maneuver chart data...
Computing Atmospheric mass density...
Loading historical data...
Loading historical data...
Loading historical data...
Loading historical data...
Loading historical data...
Loading historical data...
Loading historical data...

Documentation

Showing up to 5 results
|